TITAN 3C TRANSTAGE DEB, 20672

Orbit data source: Space-Track

TITAN 3C TRANSTAGE DEB, 20672 is space debris in HEO originally from a launch on Tue, 21 Dec 1965 UTC launched from the Air Force Eastern Test Range (AFETR). Debris objects in space refer to the collection of defunct objects orbiting the Earth. Examples of debris include non-operational satellites, rocket bodies, and fragments generated from explosions, collisions, or faulty payload assembly.

Loading next visibility...
Identifier
20672, 1965-108AD
Orbit
HEO
Country
Flag of USUS
Related business
Manufacturer
Unknown
Mission
Spacecraft
Bus & Motor
Unknown
Mass
Unknown
Launch date (UTC)
1965-12-21 (60 years ago)
Launch vehicle
Unknown
Launch site
Air Force Eastern Test Range (AFETR)
Object type
Payload
Rocket body
Debris
Shape & HBR
Unknown
Radar Cross Section
Small (<0.1 m²)

Expand to show TLE details & history
Last TLE update: 2 days ago

TLE from 2 days ago
0 TITAN 3C TRANSTAGE DEB
1 20672U 65108AD  25259.39002854 -.00000012  00000-0  74603-4 0  9999
2 20672  27.1726 325.6378 6796386 119.3973 355.8766  2.70044690 40125
Epoch: 2025-09-16T09:21Z
TLE epoch observation values (Epoch: 2025-09-16T09:21:38.465Z)
Latitude
27.29278°
Longitude
-79.65563°
Altitude
983.182 km
Speed
9.489 km/s
True Right ascension
03h 45m 20s
True Declination
27° 09' 26"
Sunlit
Object was in daylight at epoch
Visualization orbit readout
Latitude
Unknown
Longitude
Unknown
Altitude
Unknown
Speed
Unknown
Apparent Right ascension
Unknown
Apparent Declination
Unknown
Sunlit
N/A
Visualization observer readout
Local Sidereal Time
14:47:40
Azimuth
Unknown
Elevation
Unknown
Doppler factor
Unknown
Orbital elements
Apogee altitude
30,214.837 km
Perigee altitude
601.327 km
Semi-major axis
21,786.219 km
Eccentricity
0.67964
Inclination
27.1726°
RAAN
325.6378°
Arg. of periapsis
119.3973°
True anomaly
331.5104°
Mean anomaly
355.8766°
Eccentric anomaly
347.34658°
Mean motion
0.67495 °/min
Orbital period
533.37 mins
BSTAR
0.000074603
Loading maneuver chart data...
Computing Atmospheric mass density...

Documentation

Showing up to 5 results
|